EN

Hourly Weather Lukaszowka

Today, 14 May, Friday

Time Temperature Precipitation Wind Pressure Humidity
00:00 +11°C° 0 mm 3 mps 733 mmHg 94%
01:00 +11°C° 0 mm 3 mps 733 mmHg 94%
02:00 +10°C° 0 mm 3 mps 732 mmHg 94%
03:00 +10°C° 0 mm 3 mps 732 mmHg 95%
04:00 +10°C° 0 mm 3 mps 732 mmHg 95%
05:00 +9°C° 0 mm 3 mps 732 mmHg 95%
06:00 +11°C° 0 mm 4 mps 732 mmHg 91%
07:00 +12°C° 0 mm 4 mps 733 mmHg 87%
08:00 +14°C° 0 mm 5 mps 733 mmHg 83%
09:00 +15°C° 0.2 mm 5 mps 733 mmHg 78%
10:00 +16°C° 0.2 mm 5 mps 733 mmHg 73%
11:00 +17°C° 0.2 mm 5 mps 733 mmHg 69%
12:00 +17°C° 0.4 mm 5 mps 734 mmHg 69%
13:00 +17°C° 0.4 mm 5 mps 734 mmHg 68%
14:00 +17°C° 0.4 mm 5 mps 734 mmHg 68%
15:00 +17°C° 0.2 mm 5 mps 734 mmHg 70%
16:00 +16°C° 0.2 mm 5 mps 734 mmHg 71%
17:00 +16°C° 0.2 mm 5 mps 734 mmHg 73%
18:00 +15°C° 0.1 mm 5 mps 734 mmHg 79%
19:00 +13°C° 0.1 mm 4 mps 734 mmHg 86%
20:00 +12°C° 0.1 mm 4 mps 735 mmHg 92%
21:00 +12°C° 0.2 mm 4 mps 735 mmHg 93%
22:00 +12°C° 0.2 mm 4 mps 735 mmHg 94%
23:00 +12°C° 0.2 mm 4 mps 735 mmHg 96%

Tomorrow, 15 May, Saturday

Time Temperature Precipitation Wind Pressure Humidity
00:00 +10°C° 0.1 mm 5 mps 736 mmHg 95%
01:00 +10°C° 0.1 mm 5 mps 736 mmHg 95%
02:00 +10°C° 0.1 mm 5 mps 737 mmHg 95%
03:00 +9°C° 0.1 mm 5 mps 737 mmHg 94%
04:00 +9°C° 0.1 mm 5 mps 737 mmHg 93%
05:00 +9°C° 0.1 mm 5 mps 737 mmHg 93%
06:00 +9°C° 0 mm 5 mps 738 mmHg 90%
07:00 +11°C° 0 mm 4 mps 738 mmHg 86%
08:00 +11°C° 0 mm 4 mps 739 mmHg 83%
09:00 +12°C° 0 mm 4 mps 739 mmHg 77%
10:00 +13°C° 0 mm 5 mps 739 mmHg 72%
11:00 +14°C° 0 mm 5 mps 739 mmHg 66%
12:00 +14°C° 0 mm 4 mps 739 mmHg 66%
13:00 +15°C° 0 mm 4 mps 739 mmHg 66%
14:00 +16°C° 0 mm 3 mps 739 mmHg 65%
15:00 +17°C° 0 mm 3 mps 739 mmHg 63%
16:00 +17°C° 0 mm 2 mps 739 mmHg 61%
17:00 +17°C° 0 mm 2 mps 739 mmHg 59%
18:00 +16°C° 0 mm 2 mps 739 mmHg 65%
19:00 +15°C° 0 mm 2 mps 739 mmHg 71%
20:00 +13°C° 0 mm 2 mps 739 mmHg 77%
21:00 +13°C° 0 mm 2 mps 739 mmHg 80%
22:00 +12°C° 0 mm 2 mps 739 mmHg 84%
23:00 +10°C° 0 mm 2 mps 739 mmHg 88%

Day after tomorrow, 16 May, Sunday

Time Temperature Precipitation Wind Pressure Humidity
00:00 +10°C° 0 mm 3 mps 739 mmHg 88%
01:00 +10°C° 0 mm 3 mps 739 mmHg 89%
02:00 +10°C° 0 mm 3 mps 739 mmHg 89%
03:00 +10°C° 0 mm 3 mps 738 mmHg 90%
04:00 +10°C° 0 mm 3 mps 738 mmHg 91%
05:00 +10°C° 0 mm 3 mps 738 mmHg 91%
06:00 +11°C° 0 mm 4 mps 738 mmHg 87%
07:00 +13°C° 0 mm 4 mps 738 mmHg 82%
08:00 +14°C° 0 mm 4 mps 738 mmHg 77%
09:00 +17°C° 0 mm 4 mps 738 mmHg 72%
10:00 +18°C° 0 mm 4 mps 737 mmHg 67%
11:00 +19°C° 0 mm 4 mps 737 mmHg 63%
12:00 +19°C° 0.4 mm 4 mps 737 mmHg 66%
13:00 +19°C° 0.4 mm 5 mps 737 mmHg 69%
14:00 +17°C° 0.4 mm 5 mps 737 mmHg 72%
15:00 +18°C° 0.5 mm 4 mps 736 mmHg 75%
16:00 +17°C° 0.5 mm 4 mps 736 mmHg 79%
17:00 +16°C° 0.5 mm 3 mps 736 mmHg 82%
18:00 +14°C° 0.5 mm 3 mps 736 mmHg 86%
19:00 +13°C° 0.5 mm 3 mps 736 mmHg 89%
20:00 +12°C° 0.5 mm 3 mps 736 mmHg 93%
21:00 +12°C° 0 mm 3 mps 737 mmHg 94%
22:00 +11°C° 0 mm 4 mps 737 mmHg 95%
23:00 +10°C° 0 mm 4 mps 737 mmHg 97%

17 May, Monday

Time Temperature Precipitation Wind Pressure Humidity
00:00 +10°C° 0 mm 3 mps 737 mmHg 96%
01:00 +9°C° 0 mm 3 mps 737 mmHg 96%
02:00 +9°C° 0 mm 2 mps 738 mmHg 96%
03:00 +8°C° 0 mm 2 mps 738 mmHg 96%
04:00 +8°C° 0 mm 2 mps 738 mmHg 95%
05:00 +7°C° 0 mm 2 mps 738 mmHg 95%
06:00 +9°C° 0 mm 2 mps 738 mmHg 90%
07:00 +12°C° 0 mm 2 mps 738 mmHg 85%
08:00 +13°C° 0 mm 2 mps 739 mmHg 80%
09:00 +14°C° 0 mm 3 mps 738 mmHg 73%
10:00 +16°C° 0 mm 3 mps 738 mmHg 66%
11:00 +18°C° 0 mm 3 mps 738 mmHg 60%
12:00 +19°C° 0 mm 3 mps 738 mmHg 56%
13:00 +19°C° 0 mm 3 mps 738 mmHg 53%
14:00 +20°C° 0 mm 2 mps 737 mmHg 50%
15:00 +19°C° 0.1 mm 3 mps 737 mmHg 56%
16:00 +18°C° 0.1 mm 3 mps 737 mmHg 62%
17:00 +18°C° 0.1 mm 3 mps 737 mmHg 67%
18:00 +16°C° 0.4 mm 3 mps 737 mmHg 75%
19:00 +13°C° 0.4 mm 3 mps 737 mmHg 83%
20:00 +13°C° 0.4 mm 2 mps 738 mmHg 91%
21:00 +12°C° 0 mm 2 mps 738 mmHg 92%
22:00 +12°C° 0 mm 2 mps 738 mmHg 92%
23:00 +12°C° 0 mm 2 mps 738 mmHg 92%

18 May, Tuesday

Time Temperature Precipitation Wind Pressure Humidity
00:00 +10°C° 0 mm 2 mps 738 mmHg 93%
01:00 +10°C° 0 mm 2 mps 738 mmHg 94%
02:00 +10°C° 0 mm 2 mps 738 mmHg 95%
03:00 +9°C° 0 mm 2 mps 738 mmHg 95%
04:00 +9°C° 0 mm 2 mps 738 mmHg 95%
05:00 +8°C° 0 mm 2 mps 738 mmHg 95%
06:00 +9°C° 0 mm 2 mps 738 mmHg 90%
07:00 +11°C° 0 mm 3 mps 738 mmHg 85%
08:00 +12°C° 0 mm 3 mps 739 mmHg 80%
09:00 +13°C° 0 mm 3 mps 739 mmHg 74%
10:00 +14°C° 0 mm 4 mps 739 mmHg 68%
11:00 +15°C° 0 mm 4 mps 739 mmHg 63%
12:00 +15°C° 0 mm 4 mps 739 mmHg 60%
13:00 +17°C° 0 mm 4 mps 739 mmHg 58%
14:00 +17°C° 0 mm 3 mps 739 mmHg 55%
15:00 +17°C° 0 mm 3 mps 739 mmHg 59%
16:00 +16°C° 0 mm 3 mps 739 mmHg 62%
17:00 +16°C° 0 mm 3 mps 739 mmHg 66%
18:00 +14°C° 0.1 mm 3 mps 739 mmHg 71%
19:00 +12°C° 0.1 mm 3 mps 739 mmHg 75%
20:00 +12°C° 0.1 mm 2 mps 739 mmHg 80%
21:00 +10°C° 0 mm 2 mps 739 mmHg 84%
22:00 +9°C° 0 mm 2 mps 740 mmHg 87%
23:00 +8°C° 0 mm 3 mps 740 mmHg 91%

19 May, Wednesday

Time Temperature Precipitation Wind Pressure Humidity
00:00 +8°C° 0 mm 3 mps 740 mmHg 92%
01:00 +8°C° 0 mm 3 mps 740 mmHg 93%
02:00 +7°C° 0 mm 3 mps 740 mmHg 94%
03:00 +7°C° 0 mm 3 mps 741 mmHg 94%
04:00 +7°C° 0 mm 3 mps 741 mmHg 95%
05:00 +7°C° 0 mm 3 mps 741 mmHg 96%
06:00 +7°C° 0 mm 4 mps 741 mmHg 91%
07:00 +10°C° 0 mm 4 mps 742 mmHg 86%
08:00 +10°C° 0 mm 5 mps 742 mmHg 81%
09:00 +12°C° 0.2 mm 5 mps 742 mmHg 76%
10:00 +13°C° 0.2 mm 5 mps 742 mmHg 71%
11:00 +14°C° 0.2 mm 5 mps 742 mmHg 66%
12:00 +14°C° 0.3 mm 5 mps 742 mmHg 68%
13:00 +14°C° 0.3 mm 4 mps 742 mmHg 69%
14:00 +14°C° 0.3 mm 4 mps 742 mmHg 71%
15:00 +13°C° 0.4 mm 4 mps 742 mmHg 73%
16:00 +13°C° 0.4 mm 4 mps 742 mmHg 74%
17:00 +13°C° 0.4 mm 4 mps 742 mmHg 76%
18:00 +12°C° 0.2 mm 3 mps 743 mmHg 79%
19:00 +12°C° 0.2 mm 2 mps 743 mmHg 81%
20:00 +11°C° 0.2 mm 1 mps 743 mmHg 84%
21:00 +10°C° 0 mm 1 mps 743 mmHg 84%
22:00 +10°C° 0 mm 1 mps 743 mmHg 85%
23:00 +9°C° 0 mm 1 mps 743 mmHg 85%
Show more